Weather History for Hebron, NE

Change the Weather History Date:

Thursday, May 23, 2013

  Actual Average Record
Temperature  
Mean Temperature 60 °F -  
Max Temperature 70 °F 75 °F 95 °F (2012)
Min Temperature 51 °F 53 °F 38 °F (1963)
Degree Days  
Heating Degree Days 4    
Growing Degree Days 10 (Base 50)    
Moisture  
Dew Point 49 °F    
Average Humidity 69    
Maximum Humidity 85    
Minimum Humidity 49    
Precipitation  
Precipitation 0.00 in - - ()
Sea Level Pressure  
Sea Level Pressure 30.15 in    
Wind  
Wind Speed 9 mph (NE)    
Max Wind Speed 15 mph    
Max Gust Speed 21 mph    
Visibility 10 miles    
Events      
Averages and records for this station are not official NWS values.
T = Trace of Precipitation, MM = Missing Value Source: NWS Daily Summary

Daily Weather History Graph

Daily Weather History Graph

Search for Another Location

Airport:

Trip Planner

Search our weather history database for the weather conditions in past years. The results will help you decide how hot, cold, wet, or windy it might be!

Date:

Astronomy

May. 23, 2013 Rise Set
Actual Time 6:08 AM CDT 8:46 PM CDT
Civil Twilight 5:36 AM CDT 9:18 PM CDT
Nautical Twilight 4:57 AM CDT 9:57 PM CDT
Astronomical Twilight 4:12 AM CDT 10:42 PM CDT
Moon 7:20 PM CDT (5/23) 4:53 AM CDT (5/23)
Length of Visible Light 15h 41m
Length of Day
14h 38m
Waxing Gibbous, 97% of the Moon is Illuminated
May 23
Waxing Gibbous
May 24
Full
May 31
Last Quarter
Jun 8
New
Jun 16
First Quarter

Hourly Weather History & Observations

Time (CDT) Temp. Dew Point Humidity Pressure Visibility Wind Dir Wind Speed Gust Speed Precip Events Conditions
12:15 AM 57.4 °F 47.7 °F 70% 30.03 in 10.0 mi North 8.1 mph - N/A   Overcast
12:35 AM 57.0 °F 47.3 °F 70% 30.04 in 10.0 mi North 6.9 mph - N/A   Overcast
12:55 AM 55.8 °F 47.1 °F 73% 30.04 in 10.0 mi North 8.1 mph - N/A   Scattered Clouds
1:15 AM 54.9 °F 46.8 °F 74% 30.05 in 10.0 mi North 6.9 mph - N/A   Scattered Clouds
1:35 AM 54.0 °F 46.8 °F 77% 30.05 in 10.0 mi NNW 5.8 mph - N/A   Scattered Clouds
1:55 AM 53.1 °F 46.6 °F 79% 30.05 in 10.0 mi North 6.9 mph - N/A   Clear
2:15 AM 52.5 °F 46.4 °F 80% 30.06 in 10.0 mi NW 4.6 mph - N/A   Clear
2:35 AM 51.8 °F 46.4 °F 82% 30.06 in 10.0 mi NNW 6.9 mph - N/A   Clear
2:55 AM 52.2 °F 46.6 °F 81% 30.06 in 10.0 mi North 10.4 mph - N/A   Scattered Clouds
3:15 AM 53.1 °F 46.6 °F 79% 30.06 in 10.0 mi North 6.9 mph - N/A   Mostly Cloudy
3:35 AM 54.0 °F 46.8 °F 77% 30.06 in 10.0 mi North 12.7 mph 18.4 mph N/A   Overcast
3:55 AM 54.5 °F 46.6 °F 75% 30.07 in 10.0 mi North 13.8 mph 20.7 mph N/A   Overcast
4:15 AM 54.5 °F 46.8 °F 75% 30.08 in 10.0 mi North 10.4 mph 18.4 mph N/A   Overcast
4:35 AM 54.5 °F 47.3 °F 77% 30.08 in 10.0 mi North 10.4 mph - N/A   Overcast
4:55 AM 54.5 °F 47.1 °F 76% 30.09 in 10.0 mi North 8.1 mph - N/A   Overcast
5:15 AM 54.5 °F 47.3 °F 77% 30.10 in 10.0 mi North 6.9 mph - N/A   Overcast
5:35 AM 54.5 °F 47.5 °F 77% 30.11 in 10.0 mi North 5.8 mph - N/A   Overcast
5:55 AM 54.5 °F 47.7 °F 78% 30.12 in 10.0 mi NNW 6.9 mph - N/A   Overcast
6:15 AM 54.5 °F 47.7 °F 78% 30.13 in 10.0 mi NNW 6.9 mph - N/A   Overcast
6:35 AM 54.7 °F 47.5 °F 77% 30.14 in 10.0 mi NNW 6.9 mph - N/A   Overcast
6:55 AM 54.7 °F 47.3 °F 76% 30.15 in 10.0 mi North 6.9 mph - N/A   Overcast
7:15 AM 54.7 °F 47.3 °F 76% 30.15 in 10.0 mi North 11.5 mph - N/A   Overcast
7:35 AM 54.7 °F 47.3 °F 76% 30.16 in 10.0 mi North 10.4 mph - N/A   Overcast
7:55 AM 54.9 °F 47.5 °F 76% 30.16 in 10.0 mi NNE 10.4 mph - N/A   Overcast
8:15 AM 55.0 °F 46.8 °F 74% 30.18 in 10.0 mi North 9.2 mph - N/A   Overcast
8:35 AM 55.4 °F 47.3 °F 74% 30.18 in 10.0 mi North 8.1 mph - N/A   Overcast
8:55 AM 55.6 °F 46.9 °F 73% 30.18 in 10.0 mi North 10.4 mph - N/A   Overcast
9:15 AM 56.1 °F 47.5 °F 73% 30.18 in 10.0 mi NNE 12.7 mph 16.1 mph N/A   Overcast
9:35 AM 56.5 °F 47.8 °F 73% 30.19 in 10.0 mi NNE 10.4 mph 16.1 mph N/A   Overcast
9:55 AM 56.7 °F 48.4 °F 74% 30.18 in 10.0 mi NNE 13.8 mph - N/A   Overcast
10:15 AM 57.0 °F 48.4 °F 73% 30.18 in 10.0 mi NE 15.0 mph - N/A   Overcast
10:35 AM 57.6 °F 48.6 °F 72% 30.17 in 10.0 mi NNE 15.0 mph - N/A   Overcast
10:55 AM 57.2 °F 48.2 °F 72% 30.19 in 10.0 mi NE 9.2 mph - N/A   Overcast
11:15 AM 57.7 °F 48.7 °F 72% 30.17 in 10.0 mi NE 13.8 mph 19.6 mph N/A   Overcast
11:35 AM 58.5 °F 48.9 °F 71% 30.17 in 10.0 mi NE 12.7 mph - N/A   Overcast
11:55 AM 58.6 °F 48.7 °F 70% 30.18 in 10.0 mi NE 15.0 mph 18.4 mph N/A   Overcast
12:15 PM 59.7 °F 49.5 °F 69% 30.20 in 10.0 mi NE 8.1 mph - N/A   Overcast
12:35 PM 60.4 °F 49.6 °F 68% 30.20 in 10.0 mi NNE 10.4 mph - N/A   Overcast
12:55 PM 61.3 °F 49.3 °F 65% 30.20 in 10.0 mi ENE 11.5 mph - N/A   Mostly Cloudy
1:15 PM 61.0 °F 49.1 °F 65% 30.19 in 10.0 mi ENE 9.2 mph 16.1 mph N/A   Scattered Clouds
1:35 PM 63.1 °F 50.0 °F 62% 30.20 in 10.0 mi East 8.1 mph 16.1 mph N/A   Scattered Clouds
1:55 PM 64.6 °F 50.2 °F 60% 30.20 in 10.0 mi East 10.4 mph - N/A   Scattered Clouds
2:15 PM 64.8 °F 50.2 °F 59% 30.20 in 10.0 mi ESE 8.1 mph - N/A   Clear
2:35 PM 64.6 °F 50.0 °F 59% 30.19 in 10.0 mi East 11.5 mph - N/A   Clear
2:55 PM 67.1 °F 50.2 °F 55% 30.19 in 10.0 mi East 8.1 mph - N/A   Clear
3:15 PM 67.1 °F 49.6 °F 53% 30.19 in 10.0 mi East 10.4 mph - N/A   Scattered Clouds
3:35 PM 68.7 °F 49.8 °F 51% 30.19 in 10.0 mi East 11.5 mph 16.1 mph N/A   Scattered Clouds
3:55 PM 69.1 °F 50.4 °F 51% 30.19 in 10.0 mi ENE 12.7 mph - N/A   Clear
4:15 PM 68.2 °F 49.5 °F 51% 30.18 in 10.0 mi East 11.5 mph - N/A   Clear
4:35 PM 68.2 °F 50.0 °F 52% 30.18 in 10.0 mi East 9.2 mph - N/A   Clear
4:55 PM 69.4 °F 50.4 °F 51% 30.18 in 10.0 mi ESE 9.2 mph - N/A   Clear
5:15 PM 70.3 °F 50.2 °F 49% 30.18 in 10.0 mi East 10.4 mph - N/A   Clear
5:35 PM 70.0 °F 50.2 °F 49% 30.17 in 10.0 mi East 10.4 mph - N/A   Clear
5:55 PM 69.8 °F 50.0 °F 49% 30.18 in 10.0 mi SE 9.2 mph - N/A   Clear
6:15 PM 70.0 °F 50.2 °F 49% 30.18 in 10.0 mi ESE 9.2 mph - N/A   Clear
6:35 PM 69.8 °F 50.7 °F 51% 30.18 in 10.0 mi SE 10.4 mph - N/A   Clear
6:55 PM 69.3 °F 50.7 °F 52% 30.17 in 10.0 mi SE 8.1 mph - N/A   Clear
7:15 PM 68.9 °F 50.7 °F 52% 30.17 in 10.0 mi SE 10.4 mph - N/A   Clear
7:35 PM 68.2 °F 50.9 °F 54% 30.17 in 10.0 mi ESE 9.2 mph - N/A   Clear
7:55 PM 67.3 °F 51.1 °F 56% 30.17 in 10.0 mi ESE 10.4 mph - N/A   Clear
8:15 PM 66.2 °F 51.1 °F 58% 30.17 in 10.0 mi ESE 8.1 mph - N/A   Clear
8:35 PM 64.6 °F 51.3 °F 62% 30.17 in 10.0 mi SE 5.8 mph - N/A   Clear
8:55 PM 62.1 °F 51.3 °F 68% 30.17 in 10.0 mi SE 5.8 mph - N/A   Clear
9:15 PM 59.9 °F 51.1 °F 73% 30.17 in 10.0 mi SE 5.8 mph - N/A   Clear
9:35 PM 59.4 °F 50.9 °F 74% 30.18 in 10.0 mi SE 6.9 mph - N/A   Clear
9:55 PM 57.7 °F 50.9 °F 78% 30.18 in 10.0 mi SE 6.9 mph - N/A   Clear
10:15 PM 57.4 °F 50.7 °F 78% 30.19 in 10.0 mi SSE 5.8 mph - N/A   Clear
10:35 PM 57.0 °F 50.4 °F 78% 30.21 in 10.0 mi South 5.8 mph - N/A   Clear
10:55 PM 55.6 °F 49.8 °F 81% 30.21 in 10.0 mi Calm Calm - N/A   Clear
11:15 PM 54.5 °F 50.0 °F 85% 30.21 in 10.0 mi Calm Calm - N/A   Clear
11:35 PM 53.8 °F 49.5 °F 85% 30.21 in 10.0 mi Calm Calm - N/A   Clear
11:55 PM 53.2 °F 48.7 °F 85% 30.22 in 10.0 mi Calm Calm - N/A   Clear